CZ-11 DEB (44319 NORAD) Tracking and Keplerian Element Data

This shows tracking and keplerian element data for the satellite.

Feedback or suggestion? Click here.




ElementValue
Catalog44319
NameCZ-11 DEB
Epoch Orbit164
Epoch Day169.19707068
Epoch Year2019
RAAN227.9921
Inclination44.9049
Eccentricity0.0258366
Argument of Perigee16.2693
Mean Anonmoly344.6289
Mean Motion15.40174066
Decay Rate0.00100636
L11 44319U 19032K 19169.19707068 .00100636 10828-4 71962-3 0 9997
L22 44319 44.9049 227.9921 0258366 16.2693 344.6289 15.40174066 1643

Live tracking and technical data element details for CZ-11 DEB (NORAD 44319). CZ-11 DEB can be tracked NOW for your location showing map with azimuth and elevation plus other details from your city location.

Track the satellite on the map from your city or location and see movement details for azimuth, elevation, latitude, longitude, range, height, and movement on the map or in text.







IsCatalogInMostPopularTable: catalog: 44319, numindb: 9
Update: records affected: 1



GetName: 44319 CZ-11 DEB

Hit Count: updated at: Fri, 19 Jul 2019 07:50:07 GMT